Temperature
25 24 24 24 25 25 25 24 24 24 25 24 23 22 22 22 22 22 22 22 21 21 20 20 19 19 18 18 18 17 17 17 17 16 16 16 16 16 16 15 15 15 15 15
24 24 25 25 25 25 25 24 24 24 25 24 23 22 23 22 22 21 21 21 21 20 20 19 19 18 18 18 18 17 17 17 16 16 16 16 15 15 15 15 15 15 15 15
24 24 25 25 25 24 24 24 24 24 24 24 23 22 22 22 22 21 21 21 20 20 19 19 18 18 18 17 17 17 17 17 16 16 16 16 15 15 15 15 15 15 15 15
24 25 25 24 24 24 23 24 24 24 23 22 23 21 22 22 21 21 21 21 20 20 19 19 18 18 17 17 17 17 17 17 16 16 16 15 15 15 15 15 15 15 14 14
24 24 24 24 24 24 24 24 24 24 23 22 23 22 21 22 21 20 20 20 20 19 19 18 18 17 17 17 17 17 17 17 16 16 16 15 15 15 15 15 15 14 14 14
24 25 24 24 24 24 24 24 24 23 22 21 23 22 21 21 21 21 20 20 19 19 18 18 17 17 17 17 17 16 16 16 16 16 16 15 15 15 15 14 14 14 14 14
23 24 24 24 23 24 24 22 21 21 20 21 24 22 21 21 22 21 20 20 19 19 18 18 17 17 16 16 16 16 16 16 16 16 15 15 15 15 14 14 14 14 14 14
22 22 23 24 23 23 23 22 21 20 21 22 23 22 21 22 21 21 20 19 19 18 18 17 17 16 16 16 16 16 15 15 15 15 15 15 15 15 14 14 14 14 14 14
23 22 24 24 24 23 22 22 23 22 22 21 22 21 21 21 20 20 19 19 18 18 17 17 16 16 16 16 16 15 15 15 15 15 15 15 14 14 14 14 14 14 13 13
23 22 23 23 23 23 22 22 22 21 20 20 21 21 19 19 19 19 19 18 18 17 17 16 16 16 16 15 15 15 15 15 15 15 14 14 14 14 14 14 14 14 13 13
23 22 22 22 22 22 22 22 22 21 21 20 20 20 21 19 19 19 18 18 17 17 16 16 16 16 15 15 15 15 14 14 14 14 14 14 14 14 14 13 13 13 13 13
22 21 21 22 23 22 22 22 21 20 20 21 20 19 21 19 19 19 18 18 17 16 16 15 15 15 15 15 15 15 14 14 14 14 14 14 14 14 13 13 13 13 13 13
21 21 20 21 21 21 21 21 22 21 20 20 19 18 20 19 18 18 18 17 16 16 15 15 15 15 15 15 14 14 14 14 14 14 13 13 13 13 13 13 13 12 12 12
19 20 20 20 20 21 20 21 21 20 19 19 19 19 18 18 18 17 17 16 16 15 15 14 14 14 14 14 14 14 14 14 13 13 13 13 13 13 13 12 12 12 12 12
20 19 20 21 21 21 21 21 21 20 20 19 19 19 19 18 17 17 16 16 15 15 14 14 14 13 13 13 13 14 13 13 13 13 12 12 12 12 12 12 12 12 11 11
20 19 20 20 21 21 20 20 20 20 20 19 19 19 19 18 17 17 16 15 15 14 14 13 13 13 13 13 13 13 13 13 13 12 12 12 12 11 11 11 11 11 11 11
19 19 18 19 20 20 19 20 20 19 19 19 18 18 18 17 17 16 15 15 14 14 13 13 12 12 12 12 12 12 12 12 12 12 12 11 11 11 11 11 11 11 11 11
19 19 18 18 19 18 19 20 20 19 18 18 18 17 17 17 16 15 15 14 14 13 13 12 12 12 12 12 12 12 12 12 12 11 11 11 10 10 10 10 10 10 10 10
19 18 18 17 17 18 18 18 19 18 17 17 17 17 16 16 15 15 14 13 13 13 12 12 11 11 11 11 11 11 11 11 11 11 10 10 10 10 10 10 10 9 9 9
18 18 17 17 17 17 17 18 18 18 16 17 17 16 15 15 14 13 13 13 12 12 12 11 11 11 11 11 11 11 10 10 10 10 10 10 9 9 9 9 9 9 9 9
17 17 17 16 16 17 17 17 17 16 15 16 16 15 15 14 14 13 13 12 12 11 11 11 10 10 10 10 10 10 10 10 10 10 9 9 9 9 9 9 9 9 8 8
17 16 16 16 16 15 16 16 16 15 16 15 15 15 14 14 13 13 12 11 11 11 10 10 10 10 10 10 10 9 9 9 9 9 9 9 8 8 8 8 8 8 8 8
17 16 16 16 15 15 15 15 15 15 15 15 14 14 13 13 12 12 11 11 10 10 10 10 9 9 9 9 9 9 9 9 8 8 8 8 8 8 8 8 8 7 7 7
16 16 16 15 15 15 14 14 14 14 14 13 13 13 13 12 12 11 11 10 10 10 9 9 9 9 9 9 8 8 8 8 8 8 8 7 7 7 7 7 7 7 7 7
15 15 15 15 15 14 14 13 13 13 13 13 12 12 12 11 11 11 10 10 9 9 9 9 9 8 8 8 8 8 8 7 7 7 7 7 7 6 6 6 6 6 6 6
15 14 14 14 14 13 13 13 12 12 12 12 12 11 11 11 10 10 9 9 9 8 8 8 8 7 7 7 7 7 7 7 7 6 6 6 6 6 6 6 6 6 5 5
Wind_Speed
6 5 5 5 5 5 5 4 4 2 4 4 3 3 4 4 4 3 3 3 3 4 5 6 5 5 4 3 3 4 5 4 4 2 2 2 2 2 1 1 2 3 3 4
5 5 4 2 3 5 6 5 5 3 2 2 3 4 4 5 5 3 2 3 3 3 4 6 5 4 4 3 3 4 4 4 4 3 2 2 2 1 2 1 2 3 3 3
5 2 2 4 5 6 6 6 4 3 2 5 4 4 6 6 6 4 3 3 4 4 4 5 4 4 4 3 2 2 3 4 3 3 2 2 2 1 1 1 1 1 2 2
4 4 3 5 5 5 5 4 4 5 4 4 6 3 4 7 7 6 4 3 3 3 4 4 4 4 3 3 3 2 3 4 4 4 3 3 2 1 2 1 1 1 2 2
4 3 4 5 4 5 4 4 6 7 7 7 7 5 4 7 6 6 4 4 3 3 4 5 4 4 3 3 2 2 2 2 4 3 3 3 2 2 1 1 2 1 1 1
6 4 3 4 4 5 5 6 8 8 7 7 8 6 3 4 5 6 4 4 4 4 4 5 5 4 3 3 2 2 2 2 3 3 3 3 2 2 2 1 2 1 1 1
7 7 5 3 5 5 6 5 3 5 5 5 4 3 3 5 5 5 5 4 4 4 4 4 5 4 3 4 3 2 2 1 2 2 2 2 2 3 2 2 2 2 1 1
6 6 6 4 5 4 6 6 4 3 3 2 3 3 5 7 8 6 5 5 4 4 4 4 4 4 3 3 3 2 1 1 2 2 2 2 2 1 1 2 2 2 2 2
5 3 4 4 4 5 5 6 6 6 8 6 3 4 5 7 7 6 5 5 4 4 4 4 4 3 3 3 2 2 2 1 2 2 2 1 1 1 1 1 0 1 1 1
8 6 4 4 4 6 6 6 5 4 4 4 3 3 3 6 5 5 4 5 4 4 4 3 3 3 3 3 2 2 2 1 1 2 2 1 1 1 1 1 1 0 1 1
9 8 5 6 6 6 6 6 5 5 5 4 3 1 4 5 5 5 5 4 4 3 3 2 2 1 2 3 3 3 2 1 1 1 1 1 1 1 1 1 1 1 1 1
5 6 8 6 5 4 4 5 6 4 5 5 4 1 5 6 5 5 5 5 4 4 3 2 2 1 1 2 3 2 3 2 1 1 0 0 1 1 1 1 2 2 2 2
5 5 7 5 4 5 5 6 5 5 5 6 5 1 5 6 5 4 4 4 4 3 3 2 2 1 1 1 1 2 2 2 1 1 1 0 1 0 0 1 1 1 1 1
4 7 8 8 5 3 6 7 6 6 5 6 5 2 3 3 3 3 3 3 3 3 3 2 2 1 2 1 0 1 1 2 1 1 1 0 1 1 0 1 1 1 1 1
4 8 11 10 8 8 8 9 8 8 7 7 6 5 2 3 3 3 2 2 2 2 2 2 2 2 2 3 2 1 2 1 1 1 0 0 1 1 1 1 1 1 1 2
5 8 10 10 10 9 11 9 9 9 8 8 7 4 2 2 2 2 2 2 2 2 2 2 2 2 2 2 2 2 1 1 1 0 0 0 1 1 1 1 1 1 2 1
5 7 8 8 7 9 10 7 7 5 4 4 4 2 2 1 1 2 2 2 2 2 2 2 2 2 2 2 1 1 1 0 1 1 0 0 0 1 1 2 2 1 1 2
8 8 6 7 8 9 2 1 1 2 1 1 1 2 1 1 2 2 3 3 2 2 2 2 2 2 2 2 1 2 2 1 1 1 0 1 1 1 1 2 2 2 1 2
7 7 5 5 7 7 3 1 1 2 2 1 1 1 2 2 2 2 4 3 2 2 2 2 2 2 2 2 2 2 2 2 1 0 0 1 1 2 2 2 3 2 2 2
6 7 6 6 7 5 0 2 2 2 2 1 0 1 1 1 1 1 2 2 3 3 3 2 2 2 2 2 2 2 2 3 3 2 2 2 2 2 2 3 3 3 2 3
4 6 7 8 7 3 1 2 1 2 1 3 2 2 1 1 1 2 3 2 3 2 2 2 2 2 2 2 2 2 2 2 3 2 2 2 2 2 3 3 3 3 3 3
4 3 5 5 6 3 3 2 1 2 4 3 2 2 1 2 3 3 2 3 2 2 1 1 1 2 2 2 2 2 2 3 3 2 2 2 2 2 3 2 2 3 3 3
3 2 2 2 1 3 3 3 2 3 3 3 2 2 2 2 2 2 2 2 1 1 1 1 1 1 1 1 2 2 3 3 3 3 3 2 2 2 2 2 2 2 3 2
3 2 3 3 1 0 2 3 3 3 3 3 3 2 2 2 1 1 1 1 1 1 1 1 2 2 2 2 2 2 2 3 3 3 3 3 3 2 1 2 2 2 2 2
5 3 3 4 3 1 1 3 4 4 3 3 2 2 2 1 1 1 0 0 1 1 1 2 2 2 3 3 3 3 3 3 3 3 3 3 3 2 2 2 2 2 2 3
5 5 5 4 2 2 3 3 3 3 2 2 1 2 2 2 1 1 1 1 1 1 1 2 2 3 3 3 3 3 3 3 3 3 3 2 2 2 2 1 2 3 3 5
Wind_Direction
204 221 224 221 231 259 272 269 245 219 176 179 184 200 164 161 169 174 170 169 146 142 137 121 114 111 105 105 115 114 126 128 118 107 99 106 107 112 93 71 64 66 62 69
212 222 234 250 248 250 252 251 247 224 195 208 202 209 190 175 176 174 174 153 147 143 133 128 131 128 129 129 149 134 132 126 125 123 128 126 118 124 109 96 68 69 65 52
223 223 221 234 238 242 248 258 262 250 247 244 231 219 194 172 159 155 165 159 150 142 132 135 134 132 138 140 146 143 143 133 131 129 120 109 94 77 80 101 87 61 78 78
235 232 229 246 252 266 255 266 265 260 249 247 228 239 187 162 158 164 163 146 126 117 118 124 126 120 130 147 158 150 145 152 147 143 144 151 151 156 176 161 149 132 72 75
240 217 241 249 259 273 270 277 267 262 256 261 246 243 184 157 156 164 159 149 134 131 129 129 128 125 122 118 135 140 139 137 142 154 153 170 181 184 161 144 150 150 125 83
252 236 252 268 258 260 266 260 252 250 254 252 235 229 166 165 168 160 155 151 146 135 121 125 122 111 106 101 93 108 120 131 128 136 155 177 184 177 160 173 165 173 165 173
237 220 215 250 258 236 249 259 254 227 220 234 206 193 129 110 109 117 134 138 134 136 131 125 123 121 124 119 112 97 92 109 125 143 175 190 198 201 192 199 194 186 188 197
241 223 198 211 247 261 248 248 260 282 276 283 220 175 122 109 99 93 99 106 106 113 118 117 118 125 126 125 127 130 136 151 155 180 209 206 208 182 210 217 193 192 201 211
289 233 184 195 231 262 257 243 268 283 287 279 226 132 123 107 109 109 108 104 101 102 111 118 119 127 131 131 139 151 159 176 180 194 205 176 200 158 182 250 259 243 232 238
285 283 212 190 212 229 259 284 271 263 284 272 242 180 159 149 138 124 118 116 110 107 112 109 130 149 153 150 159 154 153 170 191 198 208 178 188 182 189 197 200 236 307 303
275 273 237 203 213 233 226 237 255 266 264 281 280 85 84 124 133 133 126 118 112 100 98 100 97 133 154 149 160 160 165 180 181 196 236 223 194 177 169 183 212 224 229 266
277 276 264 233 200 209 247 247 254 261 273 279 282 80 83 100 103 109 116 111 99 93 86 89 79 50 157 156 165 172 170 168 170 175 191 299 225 180 180 193 208 215 228 242
315 273 266 228 199 197 239 242 256 273 280 275 274 154 107 104 94 87 101 108 106 104 92 82 75 45 22 87 173 156 152 132 131 130 128 76 354 338 231 234 217 224 235 257
299 269 266 269 280 250 247 243 237 254 264 274 273 233 167 140 130 121 116 118 115 110 101 84 73 44 16 18 358 123 110 110 103 107 106 72 7 352 321 306 289 260 273 277
266 272 275 279 285 282 269 263 246 248 259 268 278 267 232 173 150 137 120 113 107 103 95 76 58 28 33 19 4 51 81 85 79 111 144 110 39 6 353 344 335 312 298 288
249 273 280 275 271 268 269 263 246 245 255 264 273 284 345 98 98 115 131 125 110 94 72 56 37 22 35 29 5 9 22 127 130 165 207 114 44 6 353 339 322 318 292 286
248 267 275 275 275 273 258 257 241 235 266 278 284 302 70 98 132 131 113 111 100 82 61 42 30 11 17 31 359 336 331 222 166 178 118 62 344 319 307 320 321 305 301 291
262 271 267 275 278 259 255 93 152 190 251 350 347 33 79 48 78 91 102 104 90 76 58 44 30 5 6 7 9 354 328 300 208 170 106 350 318 308 308 306 300 291 285 280
254 260 264 263 266 259 226 210 262 258 266 42 309 27 64 58 79 82 76 73 72 65 59 46 16 349 355 8 5 354 342 334 329 38 23 332 320 316 314 304 298 289 285 278
247 248 250 257 266 266 47 56 333 273 241 67 53 88 93 125 231 206 89 73 65 58 51 35 9 351 349 351 355 354 340 347 356 358 345 334 330 319 305 299 303 304 293 278
233 235 238 251 260 273 29 44 329 234 21 65 58 72 116 275 350 121 114 86 81 72 51 35 15 356 348 343 337 331 335 350 355 348 337 335 331 308 292 292 302 303 304 300
237 244 242 245 248 249 59 74 58 27 49 59 40 31 33 41 40 80 97 90 78 73 65 44 21 356 347 333 332 335 341 348 348 343 337 327 323 311 316 298 292 295 293 289
252 269 279 263 268 58 69 61 34 20 11 15 21 22 42 22 35 55 64 84 81 43 22 24 358 322 322 343 351 335 339 348 338 329 324 315 309 302 310 299 288 293 293 287
290 301 269 264 263 34 22 12 6 11 3 3 13 18 16 352 19 50 64 61 50 33 5 355 340 339 340 346 344 330 332 335 333 326 324 319 313 309 309 307 294 295 298 294
313 310 280 271 284 304 326 341 354 359 2 13 14 9 353 353 331 353 352 38 11 348 338 336 336 338 331 337 344 350 344 332 315 307 312 315 315 315 317 328 323 306 294 285
280 278 272 275 300 303 311 327 333 332 331 352 360 339 334 332 320 333 325 340 323 321 329 335 333 328 322 326 331 342 341 329 318 315 316 314 315 311 311 320 338 348 318 316
Height
1489 1491 1492 1489 1488 1489 1490 1493 1496 1494 1490 1495 1500 1502 1502 1503 1504 1506 1508 1509 1511 1513 1516 1517 1518 1520 1522 1524 1525 1526 1527 1527 1528 1530 1531 1532 1532 1533 1533 1534 1534 1534 1534 1534
1489 1490 1487 1486 1486 1488 1490 1495 1495 1492 1489 1493 1498 1501 1499 1501 1502 1505 1506 1508 1510 1512 1514 1515 1517 1519 1520 1522 1524 1525 1526 1527 1527 1528 1530 1531 1532 1532 1533 1533 1533 1533 1533 1533
1489 1488 1485 1486 1487 1490 1491 1493 1494 1494 1492 1492 1497 1502 1499 1498 1501 1504 1505 1507 1509 1511 1512 1514 1516 1518 1519 1520 1522 1523 1525 1526 1526 1527 1528 1530 1530 1531 1532 1532 1532 1532 1532 1532
1486 1485 1486 1487 1488 1489 1494 1488 1489 1492 1498 1500 1496 1509 1500 1497 1499 1502 1504 1506 1508 1510 1511 1513 1515 1516 1517 1519 1520 1522 1523 1524 1525 1526 1527 1528 1528 1529 1530 1531 1531 1531 1531 1531
1486 1484 1486 1489 1488 1488 1490 1487 1489 1491 1495 1498 1494 1502 1500 1494 1500 1501 1503 1505 1507 1509 1510 1512 1513 1515 1516 1517 1518 1520 1521 1522 1523 1524 1525 1526 1527 1528 1529 1529 1530 1530 1530 1530
1484 1483 1485 1486 1486 1486 1487 1488 1489 1490 1495 1506 1493 1497 1503 1496 1497 1498 1501 1503 1506 1508 1510 1511 1512 1513 1515 1515 1516 1518 1519 1520 1521 1522 1523 1524 1525 1526 1527 1527 1528 1528 1528 1528
1487 1484 1484 1486 1487 1487 1488 1496 1506 1507 1509 1502 1483 1492 1500 1492 1491 1495 1499 1502 1504 1507 1508 1510 1511 1512 1513 1514 1515 1516 1517 1518 1520 1521 1522 1522 1524 1524 1525 1525 1526 1526 1526 1526
1491 1491 1484 1484 1488 1490 1488 1493 1507 1514 1507 1496 1485 1494 1496 1490 1493 1496 1499 1502 1504 1506 1508 1509 1511 1512 1513 1513 1514 1515 1516 1517 1518 1519 1520 1521 1522 1522 1523 1523 1524 1524 1524 1524
1488 1489 1480 1482 1484 1487 1489 1491 1488 1497 1496 1500 1492 1493 1493 1491 1494 1497 1499 1501 1503 1506 1507 1509 1510 1511 1512 1512 1513 1514 1514 1515 1516 1517 1518 1519 1519 1520 1520 1521 1522 1522 1522 1522
1486 1490 1482 1481 1484 1485 1487 1488 1491 1497 1506 1508 1496 1494 1499 1496 1496 1497 1499 1501 1504 1505 1507 1508 1509 1510 1511 1511 1512 1513 1513 1514 1515 1516 1516 1517 1517 1517 1518 1518 1519 1519 1519 1519
1484 1489 1485 1483 1486 1488 1488 1490 1490 1493 1494 1505 1507 1505 1489 1493 1494 1496 1499 1501 1503 1505 1506 1507 1508 1509 1510 1510 1511 1512 1512 1513 1513 1513 1514 1515 1515 1516 1516 1516 1516 1516 1516 1517
1484 1487 1487 1483 1479 1481 1484 1487 1490 1501 1499 1495 1501 1507 1488 1492 1494 1496 1499 1501 1503 1505 1506 1507 1507 1508 1509 1509 1510 1510 1511 1511 1511 1512 1512 1513 1513 1513 1514 1514 1513 1514 1514 1514
1488 1489 1493 1491 1489 1485 1486 1485 1485 1489 1494 1497 1502 1506 1491 1493 1495 1497 1499 1501 1503 1504 1505 1506 1506 1507 1507 1508 1508 1509 1509 1509 1510 1510 1510 1510 1511 1511 1511 1511 1511 1511 1511 1511
1491 1489 1491 1495 1488 1484 1487 1485 1484 1490 1498 1498 1495 1497 1494 1493 1495 1497 1499 1500 1502 1503 1504 1504 1505 1505 1506 1506 1507 1507 1507 1507 1508 1508 1508 1508 1508 1508 1508 1509 1509 1508 1508 1508
1490 1490 1484 1481 1478 1479 1482 1483 1483 1487 1488 1494 1491 1491 1490 1491 1493 1496 1498 1500 1501 1502 1503 1503 1504 1504 1504 1505 1505 1505 1505 1505 1506 1506 1506 1506 1506 1505 1505 1505 1505 1505 1505 1505
1487 1488 1485 1483 1479 1478 1480 1479 1480 1483 1484 1486 1487 1489 1488 1490 1493 1495 1497 1498 1500 1501 1501 1502 1503 1503 1503 1503 1503 1503 1503 1503 1503 1504 1503 1503 1503 1503 1503 1502 1502 1502 1502 1502
1485 1487 1489 1487 1479 1479 1484 1479 1478 1481 1482 1484 1488 1490 1488 1490 1492 1494 1495 1497 1499 1500 1501 1501 1502 1502 1502 1502 1501 1501 1501 1501 1501 1501 1501 1500 1500 1500 1500 1500 1500 1499 1499 1498
1484 1485 1487 1487 1486 1493 1484 1475 1475 1479 1482 1483 1485 1487 1488 1490 1492 1493 1494 1496 1498 1499 1499 1500 1500 1500 1501 1500 1500 1499 1499 1499 1499 1498 1498 1498 1497 1497 1497 1497 1497 1496 1496 1495
1481 1484 1487 1488 1489 1483 1480 1477 1478 1480 1483 1484 1485 1487 1489 1490 1492 1493 1494 1495 1497 1497 1498 1498 1499 1499 1499 1499 1498 1498 1497 1497 1496 1496 1495 1495 1495 1494 1494 1494 1493 1493 1492 1491
1480 1481 1486 1486 1491 1489 1484 1478 1477 1480 1486 1484 1485 1487 1488 1489 1493 1494 1494 1494 1495 1496 1496 1497 1497 1497 1497 1497 1497 1496 1495 1495 1494 1493 1493 1492 1492 1492 1491 1491 1490 1490 1489 1488
1483 1483 1485 1486 1488 1484 1480 1479 1479 1489 1490 1485 1485 1486 1488 1489 1490 1491 1492 1493 1494 1494 1495 1495 1495 1495 1495 1495 1494 1494 1494 1493 1492 1491 1490 1490 1489 1489 1488 1488 1487 1486 1485 1484
1481 1484 1484 1485 1489 1490 1483 1481 1485 1487 1485 1485 1486 1487 1487 1488 1489 1489 1490 1491 1492 1492 1493 1493 1493 1493 1493 1493 1492 1492 1492 1491 1490 1489 1488 1487 1486 1486 1485 1484 1483 1482 1482 1481
1479 1481 1482 1484 1488 1484 1484 1484 1485 1485 1485 1486 1486 1487 1488 1488 1488 1488 1489 1490 1490 1491 1491 1491 1491 1491 1491 1491 1490 1490 1489 1488 1487 1486 1485 1484 1483 1482 1481 1480 1479 1479 1478 1477
1478 1478 1480 1482 1482 1483 1484 1485 1485 1485 1485 1486 1486 1486 1487 1487 1487 1487 1488 1489 1489 1489 1490 1489 1489 1489 1489 1489 1488 1487 1486 1485 1484 1483 1482 1481 1480 1479 1478 1477 1476 1475 1474 1473
1481 1480 1481 1482 1482 1483 1484 1485 1485 1485 1485 1485 1485 1486 1486 1486 1486 1487 1487 1487 1487 1488 1488 1488 1487 1487 1486 1486 1486 1485 1484 1482 1481 1480 1479 1478 1477 1476 1475 1473 1473 1472 1471 1471
1482 1482 1482 1482 1482 1483 1484 1484 1484 1483 1483 1484 1484 1484 1485 1485 1485 1485 1485 1485 1486 1486 1486 1486 1485 1485 1484 1483 1482 1482 1481 1480 1478 1477 1476 1475 1474 1473 1471 1470 1469 1468 1468 1467